Port Hope, MI

6:16 AM EST on November 19, 2017 (GMT -0500)
Port Hope

Weather History for KP58 - October, 2012

Change the Weather History Date:

Wednesday, October 10, 2012

  Actual Average Record
Temperature  
Mean Temperature 48 °F -  
Max Temperature 55 °F 60 °F 73 °F (1999)
Min Temperature 41 °F 45 °F 37 °F (2016)
Degree Days  
Heating Degree Days 17    
Moisture  
Dew Point 35 °F    
Average Humidity 67    
Maximum Humidity 89    
Minimum Humidity 47    
Precipitation  
Precipitation 0.13 in - - ()
Sea Level Pressure  
Sea Level Pressure 29.86 in    
Wind  
Wind Speed 9 mph (West)    
Max Wind Speed 15 mph    
Max Gust Speed 29 mph    
Averages and records for this station are not official NWS values.
T = Trace of Precipitation, MM = Missing Value Source: NWS Daily Summary

Daily Weather History Graph

Daily Weather History Graph

Search for Another Location

Airport or City:

Trip Planner

Search our weather history database for the weather conditions in past years. The results will help you decide how hot, cold, wet, or windy it might be!

Date:

Astronomy

Oct. 10, 2012 Rise Set
Actual Time 7:40 AM EDT 6:55 PM EDT
Civil Twilight 7:11 AM EDT 7:24 PM EDT
Nautical Twilight 6:37 AM EDT 7:57 PM EDT
Astronomical Twilight 6:04 AM EDT 8:30 PM EDT
Moon 2:04 AM EDT (10/10) 4:06 PM EDT (10/10)
Length of Visible Light 12h 12m
Length of Day
11h 14m
Waning Crescent, 27% of the Moon is Illuminated
Oct 10
Waning Crescent
Oct 15
New
Oct 21
First Quarter
Oct 29
Full
Nov 6
Last Quarter

Hourly Weather History & Observations

Time (EDT) Temp. Windchill Dew Point Humidity Pressure Visibility Wind Dir Wind Speed Gust Speed Precip Events Conditions
12:51 AM 55.0 °F - 35.1 °F 47% 29.71 in - Variable 6.9 mph 17.3 mph N/A   Unknown
1:51 AM 55.0 °F - 36.0 °F 49% 29.71 in - Variable 5.8 mph - N/A   Unknown
2:51 AM 48.9 °F - 39.9 °F 71% 29.75 in - WNW 13.8 mph 27.6 mph N/A   Unknown
3:51 AM 45.0 °F 40.6 °F 41.0 °F 86% 29.75 in - WNW 8.1 mph - 0.01 in   Unknown
4:51 AM 43.0 °F 40.3 °F 39.9 °F 89% 29.76 in - Variable 4.6 mph - 0.06 in   Unknown
5:51 AM 42.1 °F 37.7 °F 39.0 °F 89% 29.76 in - WSW 6.9 mph - 0.05 in   Unknown
6:51 AM 42.1 °F 37.7 °F 39.0 °F 89% 29.77 in - WSW 6.9 mph - N/A   Unknown
7:51 AM 43.0 °F 39.5 °F 39.0 °F 86% 29.78 in - WSW 5.8 mph - N/A   Unknown
8:51 AM 44.1 °F 39.0 °F 39.0 °F 82% 29.80 in - West 9.2 mph - N/A   Unknown
9:51 AM 45.0 °F 39.7 °F 39.0 °F 80% 29.81 in - West 10.4 mph 16.1 mph N/A   Unknown
10:51 AM 45.0 °F 40.1 °F 37.0 °F 74% 29.83 in - West 9.2 mph 20.7 mph N/A   Unknown
11:51 AM 46.9 °F - 36.0 °F 66% 29.83 in - West 9.2 mph 20.7 mph N/A   Unknown
12:51 PM 48.0 °F - 34.0 °F 58% 29.84 in - WNW 15.0 mph 24.2 mph N/A   Unknown
1:51 PM 46.0 °F 41.9 °F 35.1 °F 66% 29.85 in - West 8.1 mph 21.9 mph N/A   Unknown
2:51 PM 46.9 °F - 35.1 °F 63% 29.86 in - West 10.4 mph 21.9 mph N/A   Unknown
3:51 PM 50.0 °F - 33.1 °F 52% 29.87 in - West 10.4 mph 23.0 mph 0.01 in   Unknown
4:51 PM 46.0 °F 41.9 °F 33.1 °F 61% 29.90 in - West 8.1 mph 19.6 mph N/A   Unknown
5:51 PM 45.0 °F 38.9 °F 30.9 °F 58% 29.92 in - West 12.7 mph 28.8 mph N/A   Unknown
6:51 PM 44.1 °F 37.4 °F 30.0 °F 58% 29.96 in - West 13.8 mph 23.0 mph N/A   Unknown
7:51 PM 44.1 °F 39.0 °F 28.0 °F 53% 29.99 in - West 9.2 mph 24.2 mph N/A   Unknown
8:51 PM 43.0 °F 37.2 °F 28.0 °F 56% 30.02 in - WNW 10.4 mph 18.4 mph N/A   Unknown
9:51 PM 42.1 °F 36.6 °F 30.0 °F 62% 30.05 in - West 9.2 mph 17.3 mph N/A   Unknown
10:51 PM 41.0 °F 35.2 °F 28.9 °F 62% 30.06 in - West 9.2 mph 18.4 mph N/A   Unknown
11:51 PM 41.0 °F 36.4 °F 28.0 °F 60% 30.08 in - WNW 6.9 mph - N/A   Unknown